This is the latest recevied weather packets stored in our database for station/object N9BSW. If no packets are shown the sender has not sent any weather packets the latest 1 day(s).
| Time | Temp. | Humidity | Pressure | Rain* | Wind** | Luminosity | Snow |
|---|---|---|---|---|---|---|---|
| 1778021009 | 9.44° C | 96% | 1008.6 hPa | 0 mm | 0.89 m/s, 128° | 25 W/m² | - |
| 1778020706 | 9.44° C | 96% | 1009 hPa | 0 mm | 0.89 m/s, 156° | 20 W/m² | - |
| 1778020403 | 9.44° C | 96% | 1008.8 hPa | 0 mm | 0.45 m/s, 121° | 23 W/m² | - |
| 1778020099 | 9.44° C | 97% | 1008.5 hPa | 0 mm | 0 m/s | 32 W/m² | - |
| 1778019795 | 9.44° C | 97% | 1008.5 hPa | 0 mm | 0.89 m/s, 344° | 49 W/m² | - |
| 1778019492 | 10° C | 97% | 1008.6 hPa | 0 mm | 1.34 m/s, 146° | 42 W/m² | - |
| 1778019189 | 10° C | 97% | 1008.6 hPa | 0 mm | 1.79 m/s, 93° | 34 W/m² | - |
| 1778018886 | 10° C | 97% | 1008.7 hPa | 0 mm | 0.89 m/s, 90° | 29 W/m² | - |
| 1778018583 | 10° C | 97% | 1009.1 hPa | 0 mm | 1.34 m/s, 51° | 27 W/m² | - |
| 1778018281 | 10° C | 97% | 1009 hPa | 0 mm | 1.34 m/s, 60° | 26 W/m² | - |
| 1778017979 | 10° C | 97% | 1008.6 hPa | 0 mm | 1.79 m/s, 197° | 30 W/m² | - |
| 1778017676 | 10° C | 97% | 1008.5 hPa | 0 mm | 1.79 m/s, 109° | 39 W/m² | - |
| 1778017373 | 10° C | 97% | 1008.4 hPa | 0 mm | 1.34 m/s, 46° | 54 W/m² | - |
| 1778017070 | 10.56° C | 96% | 1008.2 hPa | 0 mm | 2.68 m/s, 34° | 55 W/m² | - |
| 1778016768 | 10.56° C | 96% | 1008.4 hPa | 0 mm | 0.89 m/s, 39° | 55 W/m² | - |
| 1778016463 | 11.11° C | 97% | 1008.3 hPa | 0 mm | 1.79 m/s, 23° | 36 W/m² | - |
| 1778016161 | 11.11° C | 96% | 1008.1 hPa | 0 mm | 0.45 m/s, 94° | 27 W/m² | - |
| 1778015858 | 11.67° C | 96% | 1007.9 hPa | 0 mm | 3.13 m/s, 62° | 44 W/m² | - |
| 1778015555 | 11.67° C | 96% | 1008 hPa | 0 mm | 0.89 m/s, 46° | 32 W/m² | - |
| 1778015251 | 11.67° C | 96% | 1007.8 hPa | 0 mm | 0.45 m/s, 162° | 33 W/m² | - |
| 1778014948 | 12.22° C | 96% | 1007.8 hPa | 0 mm | 2.68 m/s, 10° | 47 W/m² | - |
| 1778014646 | 12.78° C | 95% | 1007.7 hPa | 0 mm | 0.89 m/s, 29° | 47 W/m² | - |
| 1778014344 | 13.33° C | 96% | 1007.7 hPa | 0 mm | 0.89 m/s, 42° | 34 W/m² | - |
| 1778014040 | 13.89° C | 96% | 1007.4 hPa | 0 mm | 0.89 m/s, 114° | 34 W/m² | - |
| 1778013738 | 13.89° C | 96% | 1007.4 hPa | 0 mm | 0.45 m/s, 153° | 24 W/m² | - |
* Rain latest hour (hover to see other rain measurements)
** Current wind speed in m/s (hover to see current wind gust speed)